Theta_e
306 305 306 305 304 303 302 303 303 304 304 304 305 305 306 307 307 307 306 306 306 307 309 310 310 310 310 315 317 323 325 326 329 328 328 329 330 331 331 331 332 331 330
305 306 304 303 303 303 303 303 303 303 304 305 305 306 307 308 309 309 308 308 307 308 309 310 311 311 311 313 317 319 323 325 327 328 328 328 329 330 330 328 328 328 327
305 303 303 303 302 303 303 303 303 303 304 305 305 305 307 309 311 311 311 310 310 310 310 311 312 313 314 315 317 319 321 324 326 326 328 328 327 328 328 326 325 323 320
302 302 301 301 302 303 303 303 303 303 304 304 304 306 307 310 313 315 315 315 313 311 311 311 312 312 314 316 319 320 323 326 326 326 328 327 326 326 324 323 319 316 316
300 300 301 302 303 303 303 303 303 303 303 304 305 306 308 311 314 318 317 315 313 312 312 313 313 312 313 314 316 318 321 323 325 324 327 326 325 324 321 319 317 317 315
299 300 301 302 302 302 302 302 303 303 304 304 304 306 307 310 314 316 316 314 313 313 314 315 315 315 316 318 320 322 324 325 325 325 326 325 324 321 318 318 316 313 309
299 300 301 301 301 302 302 302 303 303 304 304 304 305 306 308 313 314 314 314 315 315 316 316 317 319 322 323 324 324 326 326 325 325 326 323 319 318 315 314 311 309 309
299 300 300 301 300 301 302 302 303 303 304 304 305 305 306 307 311 313 314 315 315 315 315 316 317 317 317 320 322 322 322 321 319 320 319 315 315 312 309 309 309 308 309
299 299 299 298 299 301 302 302 303 304 304 304 305 305 306 307 308 310 311 311 312 311 312 312 313 314 314 314 318 317 315 312 310 310 309 307 307 307 307 309 309 310 310
299 298 298 299 300 301 302 303 304 304 303 305 306 306 306 306 307 308 309 309 309 309 310 308 308 309 310 311 311 310 309 307 307 306 306 306 306 306 306 306 308 308 308
299 299 298 297 301 300 301 300 302 302 304 305 305 306 307 307 307 307 308 308 308 308 307 308 308 308 308 307 307 307 306 306 307 306 306 306 306 306 305 305 306 306 306
297 297 297 299 300 301 299 298 299 300 301 304 305 305 305 306 306 307 308 309 309 309 309 308 308 309 308 308 307 307 307 308 307 306 305 305 305 304 304 304 304 305 305
297 299 299 298 298 298 298 297 297 298 298 300 301 303 304 303 304 306 307 307 308 308 308 307 308 308 307 307 307 307 307 306 305 305 305 304 304 304 303 304 304 304 304
297 297 297 297 297 297 297 297 296 296 296 296 297 300 301 300 300 301 304 306 306 307 307 307 307 307 306 305 305 305 304 304 304 303 303 303 303 303 303 303 304 304 303
297 297 297 297 297 297 296 296 295 294 295 295 295 296 299 301 301 301 301 304 305 305 305 305 304 304 305 305 304 303 303 302 303 303 303 303 303 303 304 304 303 303 302
297 297 296 296 296 296 296 296 294 293 293 293 293 294 296 299 301 300 300 300 301 303 302 302 302 302 301 301 301 301 302 302 303 303 303 304 304 303 303 302 301 301 300
296 296 296 296 296 296 295 295 294 293 292 293 293 294 294 294 295 297 298 299 300 300 300 300 300 300 300 301 301 302 302 303 303 303 303 303 303 302 301 301 300 300 300
297 297 297 296 295 295 294 293 292 292 292 293 294 295 295 296 297 298 297 297 298 299 299 299 300 300 300 301 302 302 302 303 303 303 302 302 301 301 300 300 300 300 301
297 297 297 296 295 294 293 292 290 290 292 293 294 295 296 296 297 298 298 297 297 298 299 300 300 300 301 301 302 302 302 302 302 301 301 300 300 301 300 300 300 301 301
297 296 296 295 296 295 294 293 291 290 291 293 294 295 296 296 296 296 296 297 298 298 299 300 300 301 301 301 301 301 301 300 300 300 300 300 299 300 299 299 300 301 301
296 296 296 296 295 295 294 292 290 289 290 292 293 295 296 295 295 295 296 297 298 299 300 300 300 301 301 300 301 301 300 300 299 299 298 298 298 298 298 298 299 301 301
296 296 296 296 295 295 293 292 289 289 290 292 293 295 296 295 295 295 296 297 298 299 299 300 300 300 300 300 300 300 299 299 298 298 297 296 296 296 297 298 299 301 301
296 296 296 296 295 294 292 290 289 289 289 291 292 294 296 296 296 296 296 297 298 299 299 300 300 300 300 299 299 298 298 298 297 297 296 295 295 295 296 298 300 301 302
296 296 295 295 295 294 292 290 289 288 289 289 290 291 294 296 296 296 296 297 298 299 300 300 299 299 298 298 298 297 297 297 296 296 295 295 294 295 297 299 300 301 302
295 295 295 295 294 293 292 290 289 289 289 289 290 290 291 294 296 296 297 298 299 299 299 299 298 298 298 297 297 296 296 296 296 295 295 295 295 296 298 300 301 302 303
295 295 295 295 294 293 291 290 289 289 290 291 293 292 291 293 296 297 298 299 299 299 298 298 297 297 297 296 296 296 295 295 295 295 295 295 296 297 299 301 302 303 303
Wind_Speed
38 36 34 29 29 29 29 29 30 31 31 32 32 32 31 29 26 25 24 24 25 24 22 21 22 21 22 25 37 30 26 25 19 17 20 16 15 16 15 17 19 19 16
34 32 28 28 28 30 30 30 30 31 30 30 30 30 28 26 24 24 23 22 22 21 21 21 21 19 20 19 25 35 25 23 22 17 18 17 16 19 19 20 21 20 19
31 28 27 27 29 30 30 30 29 29 29 29 28 27 25 23 21 20 20 21 20 20 20 19 18 19 16 16 19 25 29 25 22 20 21 18 18 19 23 23 23 22 21
28 27 28 28 28 29 28 28 28 27 27 27 26 24 22 22 21 19 15 13 14 16 17 17 17 19 17 15 17 20 20 21 23 22 23 21 22 21 24 25 24 21 16
26 26 25 25 25 26 27 27 26 25 25 24 25 23 22 21 23 17 12 8 8 8 8 9 12 16 19 18 19 19 17 20 22 23 22 21 23 26 28 26 21 17 14
24 23 23 24 24 25 26 26 26 25 24 24 24 23 23 21 20 15 5 4 3 3 3 7 9 11 15 15 14 16 15 16 19 21 21 22 25 31 28 22 18 11 6
22 21 22 22 24 25 26 26 25 25 25 25 24 24 24 21 17 14 10 7 5 1 3 4 4 4 3 6 10 12 13 15 18 18 18 23 25 22 18 13 9 7 7
20 20 21 22 23 24 25 26 26 27 27 29 27 27 26 24 16 15 12 8 7 7 7 5 4 6 8 9 9 11 10 9 8 9 10 12 14 12 8 7 7 6 6
20 21 22 24 24 24 25 25 26 26 29 31 31 32 32 30 23 20 20 20 21 23 23 22 20 21 20 22 20 21 21 21 19 20 19 17 15 13 10 8 7 6 6
21 22 26 26 23 24 27 27 27 26 28 31 33 33 35 33 30 25 23 26 27 29 27 28 26 25 21 20 23 22 27 25 24 23 22 20 18 16 14 12 7 4 4
20 20 25 26 21 24 30 31 29 33 29 27 31 34 35 35 33 29 27 30 32 33 32 31 28 27 26 25 24 25 26 21 19 19 18 17 14 12 10 7 4 3 3
26 23 23 24 25 25 27 25 25 27 28 29 27 29 30 31 32 31 27 25 23 26 26 24 21 19 19 20 21 20 18 15 14 15 15 14 11 10 8 8 6 2 1
22 19 21 23 22 21 22 26 28 28 28 28 28 27 28 28 27 25 24 24 23 24 22 20 19 19 19 20 17 15 15 15 14 13 12 10 8 8 7 7 5 5 3
23 22 21 22 24 24 24 26 27 28 27 26 26 26 24 27 28 25 18 16 18 20 19 18 18 18 18 17 16 15 15 13 12 11 9 7 6 5 5 6 7 7 5
21 21 22 22 22 22 22 23 25 26 26 25 24 22 23 23 25 23 20 15 12 13 12 12 15 16 15 14 13 12 9 9 8 7 7 6 7 8 8 7 6 4 2
22 23 24 24 23 21 17 16 19 20 20 21 21 20 17 17 14 16 16 16 10 7 13 16 16 15 16 15 14 12 10 10 10 9 8 7 7 6 7 8 6 4 1
21 22 23 25 25 20 19 18 17 17 21 23 23 22 21 17 13 13 13 13 13 19 21 19 19 18 17 16 14 13 14 12 11 10 8 8 8 8 7 6 5 4 5
17 19 21 23 24 21 19 19 18 18 18 20 24 24 23 20 19 17 14 12 18 21 19 19 18 17 16 14 13 12 11 10 10 10 9 8 7 8 8 7 6 6 8
19 20 19 21 22 22 21 21 21 21 20 20 21 22 22 20 19 20 22 22 22 22 19 18 16 15 14 13 12 12 11 11 10 10 9 7 6 6 7 6 6 6 7
17 18 20 20 18 22 21 20 21 21 20 20 23 25 22 21 22 22 25 24 22 20 18 16 15 15 15 15 14 14 13 13 12 10 9 7 6 4 4 4 4 6 6
16 18 19 19 18 20 21 20 19 19 18 18 19 21 21 19 19 22 23 22 21 20 19 18 18 19 18 17 17 16 15 14 12 11 10 8 7 4 1 3 5 7 8
15 17 18 19 19 20 20 19 19 20 20 19 18 19 21 19 18 21 20 20 20 19 19 20 20 20 20 20 19 19 18 16 15 13 11 9 5 2 2 6 8 10 10
13 15 16 17 19 19 19 20 20 20 20 19 20 21 21 19 18 19 20 20 20 19 19 19 19 20 20 20 19 19 19 18 16 13 10 7 4 2 5 10 12 12 12
12 14 15 16 17 17 17 19 19 20 20 21 20 20 20 19 19 17 18 18 20 21 20 20 20 21 22 23 21 20 19 17 15 12 9 5 3 4 11 13 14 14 14
12 14 15 15 16 17 17 18 20 20 21 21 20 19 19 19 18 17 19 20 19 20 20 21 24 25 24 22 20 19 18 16 14 11 7 5 6 10 15 16 16 15 16
10 13 15 15 16 16 17 19 19 20 21 20 20 19 18 18 18 20 21 19 20 21 22 25 28 27 25 22 20 19 17 16 14 11 8 8 10 14 17 18 18 17 17
Wind_Direction
330 333 336 340 340 338 333 330 326 325 328 324 321 316 311 307 301 293 283 273 264 260 261 258 259 260 257 243 233 233 240 252 254 252 259 263 248 240 235 220 215 219 223
336 340 343 343 341 340 336 335 333 328 326 325 322 321 318 310 303 293 284 272 261 255 252 253 254 257 255 242 231 232 234 238 244 251 260 256 241 231 223 218 224 211 210
342 345 344 347 345 342 341 339 336 334 331 330 328 325 321 316 307 300 288 278 263 254 247 244 250 249 245 231 232 232 233 234 242 242 254 252 240 228 219 210 205 204 202
347 347 348 347 346 344 344 345 344 342 339 339 338 334 330 324 313 297 286 289 264 251 248 244 246 243 236 237 225 219 227 231 238 243 245 247 234 221 207 203 195 198 205
348 348 348 350 350 352 353 354 350 353 351 349 350 350 352 354 350 314 274 285 273 240 236 240 248 233 229 231 232 228 229 235 240 239 237 241 224 209 203 200 198 201 205
350 352 354 356 358 1 1 2 2 2 3 4 4 4 11 15 12 24 56 61 122 178 226 255 253 237 233 223 220 220 229 236 234 235 231 229 216 203 197 196 196 194 188
356 358 3 7 10 13 13 13 12 14 16 20 18 20 25 24 22 37 46 78 86 95 294 278 245 229 216 210 205 214 223 226 230 222 221 212 197 190 182 173 175 190 208
6 14 17 23 24 25 25 26 26 28 32 35 33 38 38 33 28 48 61 68 64 57 52 61 110 124 129 136 145 148 141 133 119 143 169 145 139 137 135 146 156 161 146
23 32 37 29 28 26 27 28 30 36 40 43 42 46 49 47 47 60 75 83 84 82 82 82 91 99 107 112 119 117 109 96 89 90 96 102 111 112 116 109 128 147 152
44 48 43 35 27 32 35 36 40 43 44 45 49 53 54 53 51 58 73 83 84 85 84 83 78 80 84 90 94 98 92 92 92 96 98 97 94 92 90 98 98 135 154
50 47 35 22 27 42 45 42 42 43 42 46 50 51 52 53 55 58 65 74 82 83 83 83 83 82 78 78 80 82 86 94 98 97 96 91 88 83 78 64 57 137 176
35 30 23 37 56 47 42 38 40 46 46 45 47 50 49 49 49 51 59 67 74 80 82 84 84 84 84 83 81 84 89 84 92 88 87 80 72 63 42 17 1 356 253
29 33 35 36 39 40 35 35 37 37 39 41 40 40 45 46 48 50 49 57 64 70 74 79 86 88 87 83 84 88 91 88 82 74 68 57 44 34 15 11 31 7 319
40 39 36 32 31 29 30 31 32 34 30 31 36 37 37 41 41 44 47 59 72 78 81 81 81 81 82 85 72 66 61 58 55 56 46 33 22 8 357 338 328 319 294
34 33 27 24 21 20 21 28 29 28 23 24 29 31 34 38 39 30 36 47 65 80 77 72 60 54 54 55 53 54 53 51 50 44 31 18 360 339 334 338 343 342 268
36 32 30 29 26 23 21 22 17 20 23 28 31 35 38 37 31 29 38 44 50 67 63 59 56 54 53 53 58 53 50 48 37 18 8 1 358 354 354 358 7 23 71
33 32 31 29 26 25 26 28 29 28 36 42 41 40 39 35 28 27 34 48 54 63 60 59 64 61 55 50 49 41 33 28 22 14 11 14 16 15 12 10 27 61 104
28 23 25 27 28 30 32 33 32 32 31 34 41 40 42 44 44 45 54 63 55 53 53 57 58 49 43 40 34 25 18 14 10 11 12 19 25 23 24 29 52 86 101
26 31 31 31 32 37 38 37 38 40 40 41 44 47 47 50 51 53 55 52 55 56 56 54 47 39 32 26 19 13 11 11 8 6 9 14 15 13 21 36 60 99 104
33 32 34 37 36 36 36 36 37 39 40 40 40 40 42 43 41 40 49 53 54 53 50 46 37 27 26 26 24 20 16 13 11 10 8 3 1 6 4 54 81 121 116
40 39 39 38 35 33 35 36 38 40 39 39 39 39 41 42 40 45 48 49 48 44 42 39 34 30 27 23 21 18 14 10 7 5 4 4 1 354 335 117 127 138 129
39 38 37 35 33 33 34 37 40 43 43 43 41 41 43 44 42 45 48 44 39 35 32 29 26 23 19 15 12 10 8 5 2 2 1 358 355 7 126 142 141 142 137
34 33 33 33 31 32 36 41 42 42 42 42 41 42 42 44 46 45 44 40 35 32 29 24 21 20 15 10 7 5 3 2 360 358 356 358 19 105 138 143 142 142 141
38 39 35 35 34 36 39 40 42 42 43 41 40 41 42 43 42 43 42 36 31 28 25 23 22 16 12 8 6 4 1 358 359 1 6 20 54 116 139 140 139 138 135
47 47 42 38 38 39 40 42 42 41 40 39 39 41 42 43 43 42 44 37 29 25 27 24 19 14 10 6 5 4 1 1 6 13 26 57 91 126 138 136 135 132 131
49 51 47 42 39 41 42 42 42 41 39 38 38 40 43 45 42 45 43 34 28 29 29 28 24 16 11 8 8 8 9 11 17 29 54 83 110 132 132 132 132 130 127